Tracking 27112 objects as of 27-Mar-2023
HD Live streaming from Space Station
objects crossing your sky now

SL-16 DEB

Track SL-16 DEB now!
10-day predictions


NORAD ID: 22437
Int'l Code: 1992-093EE
Perigee: 724.4 km
Apogee: 782.4 km
Inclination: 71.3 °
Period: 99.7 minutes
Semi major axis: 7124 km
RCS: 0.0125 m2 (small)
Launch date: December 25, 1992
Source: Commonwealth of Independent States (former USSR) (CIS)
Launch site: TYURATAM MISSILE AND SPACE COMPLEX (TTMTR)

Note: This is SATELLITE DEBRIS
Your satellite tracking list
Your tracking list is empty




NASA's NSSDC Master Catalog

Two Line Element Set (TLE):
1 22437U 92093EE  23085.37648272  .00004720  00000-0  13880-2 0  9993
2 22437  71.3364 184.5887 0040704 355.3973   4.6786 14.43705393578094
Source of the keplerian elements: AFSPC